| time (UTC) | temp C | wind direction | speed KPH | gust KPH | rain 1hr cm | rain 24hr cm | rain mn cm | humidity % | barometer mb |
| 20260504002444 | 27 | 49 | 4.8 | 14.5 | 0.00 | 0.00 | 0.00 | 30 | 1012.0 |
| 20260504001944 | 27 | 40 | 11.3 | 14.5 | 0.00 | 0.00 | 0.00 | 29 | 1012.0 |
| 20260504001444 | 27 | 45 | 9.7 | 12.9 | 0.00 | 0.00 | 0.00 | 30 | 1012.0 |
| 20260504000945 | 28 | 46 | 6.4 | 11.3 | 0.00 | 0.00 | 0.00 | 29 | 1012.0 |
| 20260504000445 | 28 | 325 | 8.0 | 16.1 | 0.00 | 0.00 | 0.00 | 29 | 1012.0 |
| 20260503235944 | 28 | 9 | 8.0 | 11.3 | 0.00 | 0.00 | 0.00 | 28 | 1012.0 |
| 20260503235445 | 28 | 42 | 3.2 | 14.5 | 0.00 | 0.00 | 0.00 | 29 | 1012.0 |
| 20260503234944 | 27 | 309 | 9.7 | 16.1 | 0.00 | 0.00 | 0.00 | 29 | 1012.0 |
| 20260503234444 | 28 | 39 | 9.7 | 16.1 | 0.00 | 0.00 | 0.00 | 29 | 1012.0 |
| 20260503233944 | 28 | 307 | 8.0 | 16.1 | 0.00 | 0.00 | 0.00 | 28 | 1012.0 |
| 20260503233446 | 28 | 38 | 9.7 | 17.7 | 0.00 | 0.00 | 0.00 | 28 | 1012.0 |
| 20260503232944 | 28 | 27 | 8.0 | 16.1 | 0.00 | 0.00 | 0.00 | 28 | 1012.0 |
| 20260503232444 | 28 | 24 | 9.7 | 14.5 | 0.00 | 0.00 | 0.00 | 30 | 1012.0 |
| 20260503231944 | 28 | 353 | 8.0 | 12.9 | 0.00 | 0.00 | 0.00 | 29 | 1012.0 |
| 20260503231444 | 28 | 302 | 4.8 | 16.1 | 0.00 | 0.00 | 0.00 | 29 | 1012.0 |
| 20260503230944 | 28 | 27 | 8.0 | 16.1 | 0.00 | 0.00 | 0.00 | 29 | 1012.0 |
| 20260503230445 | 28 | 44 | 9.7 | 14.5 | 0.00 | 0.00 | 0.00 | 30 | 1012.0 |
| 20260503225945 | 28 | 41 | 6.4 | 16.1 | 0.00 | 0.00 | 0.00 | 29 | 1012.0 |
| 20260503225444 | 27 | 23 | 11.3 | 16.1 | 0.00 | 0.00 | 0.00 | 31 | 1012.0 |
| 20260503224944 | 28 | 11 | 11.3 | 14.5 | 0.00 | 0.00 | 0.00 | 31 | 1011.0 |
| 20260503224445 | 27 | 29 | 8.0 | 19.3 | 0.00 | 0.00 | 0.00 | 31 | 1011.0 |
| 20260503223945 | 27 | 17 | 11.3 | 16.1 | 0.00 | 0.00 | 0.00 | 31 | 1011.0 |
| 20260503223444 | 28 | 10 | 11.3 | 16.1 | 0.00 | 0.00 | 0.00 | 31 | 1011.0 |
| 20260503222944 | 28 | 59 | 8.0 | 14.5 | 0.00 | 0.00 | 0.00 | 29 | 1011.0 |
| 20260503222444 | 28 | 23 | 9.7 | 14.5 | 0.00 | 0.00 | 0.00 | 30 | 1011.0 |
| 20260503221945 | 28 | 59 | 11.3 | 14.5 | 0.00 | 0.00 | 0.00 | 30 | 1011.0 |
| 20260503221444 | 28 | 26 | 4.8 | 12.9 | 0.00 | 0.00 | 0.00 | 30 | 1011.0 |
| 20260503220945 | 28 | 64 | 8.0 | 12.9 | 0.00 | 0.00 | 0.00 | 29 | 1011.0 |
| 20260503220444 | 28 | 27 | 8.0 | 19.3 | 0.00 | 0.00 | 0.00 | 29 | 1010.0 |
| 20260503215944 | 27 | 2 | 12.9 | 19.3 | 0.00 | 0.00 | 0.00 | 30 | 1010.0 |
| 20260503215445 | 28 | 332 | 11.3 | 20.9 | 0.00 | 0.00 | 0.00 | 29 | 1010.0 |
| 20260503214944 | 28 | 310 | 11.3 | 14.5 | 0.00 | 0.00 | 0.00 | 30 | 1010.0 |
| 20260503214444 | 28 | 334 | 11.3 | 16.1 | 0.00 | 0.00 | 0.00 | 29 | 1010.0 |
| 20260503213945 | 28 | 48 | 8.0 | 17.7 | 0.00 | 0.00 | 0.00 | 30 | 1010.0 |
| 20260503213444 | 28 | 17 | 12.9 | 17.7 | 0.00 | 0.00 | 0.00 | 30 | 1009.0 |
| 20260503212944 | 28 | 34 | 9.7 | 16.1 | 0.00 | 0.00 | 0.00 | 31 | 1009.0 |
| 20260503212445 | 28 | 52 | 9.7 | 14.5 | 0.00 | 0.00 | 0.00 | 31 | 1009.0 |
| 20260503211945 | 28 | 338 | 9.7 | 14.5 | 0.00 | 0.00 | 0.00 | 32 | 1009.0 |
| 20260503211445 | 27 | 24 | 11.3 | 14.5 | 0.00 | 0.00 | 0.00 | 33 | 1009.0 |
| 20260503210945 | 27 | 50 | 6.4 | 16.1 | 0.00 | 0.00 | 0.00 | 33 | 1009.0 |
| 20260503210445 | 27 | 322 | 11.3 | 16.1 | 0.00 | 0.00 | 0.00 | 34 | 1009.0 |
| 20260503205945 | 27 | 325 | 9.7 | 12.9 | 0.00 | 0.00 | 0.00 | 32 | 1009.0 |
| 20260503205444 | 28 | 1 | 9.7 | 12.9 | 0.00 | 0.00 | 0.00 | 32 | 1009.0 |
| 20260503204945 | 27 | 47 | 11.3 | 14.5 | 0.00 | 0.00 | 0.00 | 33 | 1009.0 |
| 20260503204445 | 27 | 354 | 9.7 | 14.5 | 0.00 | 0.00 | 0.00 | 32 | 1009.0 |
| 20260503203944 | 27 | 32 | 9.7 | 12.9 | 0.00 | 0.00 | 0.00 | 32 | 1009.0 |
| 20260503203445 | 27 | 24 | 9.7 | 17.7 | 0.00 | 0.00 | 0.00 | 32 | 1009.0 |
| 20260503202944 | 27 | 52 | 11.3 | 19.3 | 0.00 | 0.00 | 0.00 | 32 | 1009.0 |
| 20260503202447 | 26 | 20 | 11.3 | 19.3 | 0.00 | 0.00 | 0.00 | 34 | 1009.0 |
| 20260503201944 | 27 | 317 | 12.9 | 14.5 | 0.00 | 0.00 | 0.00 | 34 | 1009.0 |
| 20260503201444 | 27 | 340 | 8.0 | 14.5 | 0.00 | 0.00 | 0.00 | 34 | 1009.0 |
| 20260503200945 | 27 | 29 | 4.8 | 11.3 | 0.00 | 0.00 | 0.00 | 35 | 1009.0 |
| 20260503200445 | 27 | 19 | 8.0 | 17.7 | 0.00 | 0.00 | 0.00 | 37 | 1009.0 |
| 20260503195944 | 27 | 30 | 4.8 | 11.3 | 0.00 | 0.00 | 0.00 | 36 | 1009.0 |
| 20260503195444 | 27 | 22 | 6.4 | 11.3 | 0.00 | 0.00 | 0.00 | 36 | 1009.0 |
| 20260503194944 | 26 | 302 | 8.0 | 12.9 | 0.00 | 0.00 | 0.00 | 37 | 1009.0 |
| 20260503194446 | 26 | 39 | 8.0 | 14.5 | 0.00 | 0.00 | 0.00 | 37 | 1009.0 |
| 20260503193945 | 26 | 309 | 9.7 | 14.5 | 0.00 | 0.00 | 0.00 | 37 | 1009.0 |
| 20260503193445 | 26 | 8 | 6.4 | 12.9 | 0.00 | 0.00 | 0.00 | 38 | 1009.0 |
| 20260503192945 | 25 | 15 | 11.3 | 12.9 | 0.00 | 0.00 | 0.00 | 39 | 1009.0 |
| 20260503192445 | 26 | 349 | 8.0 | 11.3 | 0.00 | 0.00 | 0.00 | 38 | 1009.0 |
| 20260503191944 | 26 | 351 | 4.8 | 12.9 | 0.00 | 0.00 | 0.00 | 37 | 1010.0 |
| 20260503191444 | 26 | 49 | 4.8 | 11.3 | 0.00 | 0.00 | 0.00 | 38 | 1010.0 |
| 20260503190944 | 26 | 59 | 6.4 | 14.5 | 0.00 | 0.00 | 0.00 | 38 | 1010.0 |
| 20260503190448 | 26 | 318 | 6.4 | 14.5 | 0.00 | 0.00 | 0.00 | 39 | 1010.0 |
| 20260503185945 | 25 | 319 | 6.4 | 11.3 | 0.00 | 0.00 | 0.00 | 40 | 1010.0 |
| 20260503185444 | 25 | 329 | 8.0 | 12.9 | 0.00 | 0.00 | 0.00 | 41 | 1010.0 |
| 20260503184944 | 25 | 324 | 9.7 | 12.9 | 0.00 | 0.00 | 0.00 | 40 | 1010.0 |
| 20260503184444 | 25 | 345 | 8.0 | 11.3 | 0.00 | 0.00 | 0.00 | 41 | 1011.0 |
| 20260503183945 | 25 | 350 | 8.0 | 14.5 | 0.00 | 0.00 | 0.00 | 42 | 1011.0 |
| 20260503183445 | 25 | 329 | 8.0 | 14.5 | 0.00 | 0.00 | 0.00 | 41 | 1011.0 |
| 20260503182946 | 25 | 347 | 4.8 | 12.9 | 0.00 | 0.00 | 0.00 | 42 | 1011.0 |
| 20260503182444 | 24 | 60 | 8.0 | 12.9 | 0.00 | 0.00 | 0.00 | 42 | 1011.0 |
| 20260503181945 | 24 | 41 | 6.4 | 12.9 | 0.00 | 0.00 | 0.00 | 43 | 1012.0 |
| 20260503181444 | 24 | 24 | 4.8 | 12.9 | 0.00 | 0.00 | 0.00 | 43 | 1012.0 |
| 20260503180944 | 23 | 32 | 12.9 | 14.5 | 0.00 | 0.00 | 0.00 | 45 | 1012.0 |
| 20260503180444 | 24 | 16 | 6.4 | 9.7 | 0.00 | 0.00 | 0.00 | 43 | 1013.0 |
| 20260503175945 | 23 | 28 | 6.4 | 12.9 | 0.00 | 0.00 | 0.00 | 43 | 1013.0 |
| 20260503175445 | 23 | 325 | 8.0 | 11.3 | 0.00 | 0.00 | 0.00 | 44 | 1013.0 |
| 20260503174945 | 23 | 40 | 8.0 | 14.5 | 0.00 | 0.00 | 0.00 | 44 | 1013.0 |
| 20260503174445 | 23 | 293 | 6.4 | 12.9 | 0.00 | 0.00 | 0.00 | 45 | 1014.0 |
| 20260503173945 | 22 | 12 | 9.7 | 12.9 | 0.00 | 0.00 | 0.00 | 46 | 1014.0 |
| 20260503173445 | 23 | 342 | 8.0 | 14.5 | 0.00 | 0.00 | 0.00 | 45 | 1013.0 |
| 20260503172944 | 22 | 48 | 9.7 | 14.5 | 0.00 | 0.00 | 0.00 | 46 | 1013.0 |
| 20260503172444 | 22 | 343 | 11.3 | 14.5 | 0.00 | 0.00 | 0.00 | 45 | 1013.0 |
| 20260503171945 | 23 | 11 | 8.0 | 12.9 | 0.00 | 0.00 | 0.00 | 45 | 1013.0 |
| 20260503171444 | 22 | 40 | 9.7 | 12.9 | 0.00 | 0.00 | 0.00 | 47 | 1013.0 |
| 20260503170944 | 22 | 30 | 6.4 | 11.3 | 0.00 | 0.00 | 0.00 | 46 | 1013.0 |
| 20260503170444 | 22 | 51 | 8.0 | 12.9 | 0.00 | 0.00 | 0.00 | 47 | 1012.0 |
| 20260503150945 | 17 | 14 | 4.8 | 9.7 | 0.00 | 0.00 | 0.00 | 60 | 1009.0 |
| 20260503150448 | 17 | 11 | 4.8 | 8.0 | 0.00 | 0.00 | 0.00 | 61 | 1009.0 |
| 20260503130945 | 13 | 17 | 3.2 | 4.8 | 0.00 | 0.00 | 0.00 | 68 | 1008.0 |
| 20260503110444 | 13 | 292 | 3.2 | 4.8 | 0.00 | 0.00 | 0.00 | 70 | 1011.0 |
| 20260503090445 | 14 | 120 | 0.0 | 1.6 | 0.00 | 0.00 | 0.00 | 65 | 1013.0 |
| 20260503081445 | 15 | 275 | 0.0 | 4.8 | 0.00 | 0.00 | 0.00 | 60 | 1015.0 |
| 20260503080944 | 15 | 274 | 1.6 | 3.2 | 0.00 | 0.00 | 0.00 | 60 | 1015.0 |
| 20260503080445 | 15 | 273 | 1.6 | 4.8 | 0.00 | 0.00 | 0.00 | 62 | 1015.0 |
| 20260503072444 | 15 | 290 | 3.2 | 4.8 | 0.00 | 0.00 | 0.00 | 63 | 1016.0 |
| 20260503071944 | 15 | 273 | 3.2 | 4.8 | 0.00 | 0.00 | 0.00 | 64 | 1016.0 |
| 20260503071445 | 15 | 272 | 3.2 | 4.8 | 0.00 | 0.00 | 0.00 | 64 | 1016.0 |
| 20260503070944 | 15 | 274 | 0.0 | 3.2 | 0.00 | 0.00 | 0.00 | 64 | 1016.0 |
| 20260503070444 | 15 | 273 | 0.0 | 3.2 | 0.00 | 0.00 | 0.00 | 64 | 1016.0 |
| 20260503054944 | 16 | 104 | 0.0 | 3.2 | 0.00 | 0.00 | 0.00 | 59 | 1018.0 |
| 20260503054445 | 16 | 74 | 0.0 | 1.6 | 0.00 | 0.00 | 0.00 | 58 | 1018.0 |
| 20260503053945 | 16 | 75 | 0.0 | 0.0 | 0.00 | 0.00 | 0.00 | 58 | 1018.0 |
| 20260503053446 | 16 | 76 | 0.0 | 3.2 | 0.00 | 0.00 | 0.00 | 57 | 1018.0 |
| 20260503052945 | 16 | 111 | 0.0 | 0.0 | 0.00 | 0.00 | 0.00 | 56 | 1018.0 |
| 20260503052445 | 17 | 111 | 0.0 | 3.2 | 0.00 | 0.00 | 0.00 | 56 | 1018.0 |
| 20260503051946 | 17 | 110 | 0.0 | 1.6 | 0.00 | 0.00 | 0.00 | 56 | 1018.0 |
| 20260503051444 | 17 | 109 | 0.0 | 0.0 | 0.00 | 0.00 | 0.00 | 55 | 1018.0 |
| 20260503050944 | 17 | 110 | 0.0 | 1.6 | 0.00 | 0.00 | 0.00 | 55 | 1018.0 |
| 20260503050444 | 17 | 109 | 0.0 | 1.6 | 0.00 | 0.00 | 0.00 | 54 | 1019.0 |
| 20260503045945 | 17 | 108 | 0.0 | 3.2 | 0.00 | 0.00 | 0.00 | 53 | 1019.0 |
| 20260503045444 | 17 | 108 | 1.6 | 3.2 | 0.00 | 0.00 | 0.00 | 52 | 1019.0 |
| 20260503044944 | 18 | 105 | 1.6 | 3.2 | 0.00 | 0.00 | 0.00 | 52 | 1019.0 |
| 20260503044444 | 18 | 93 | 0.0 | 1.6 | 0.00 | 0.00 | 0.00 | 51 | 1019.0 |
| 20260503043944 | 18 | 108 | 0.0 | 3.2 | 0.00 | 0.00 | 0.00 | 49 | 1019.0 |
| 20260503043445 | 18 | 100 | 0.0 | 3.2 | 0.00 | 0.00 | 0.00 | 48 | 1019.0 |
| 20260503042944 | 19 | 96 | 1.6 | 3.2 | 0.00 | 0.00 | 0.00 | 47 | 1019.0 |
| 20260503042445 | 19 | 33 | 0.0 | 1.6 | 0.00 | 0.00 | 0.00 | 46 | 1019.0 |
| 20260503041946 | 19 | 33 | 0.0 | 4.8 | 0.00 | 0.00 | 0.00 | 45 | 1020.0 |
| 20260503041444 | 19 | 31 | 1.6 | 4.8 | 0.00 | 0.00 | 0.00 | 45 | 1020.0 |
| 20260503040944 | 19 | 38 | 3.2 | 8.0 | 0.00 | 0.00 | 0.00 | 44 | 1020.0 |
| 20260503040444 | 20 | 10 | 4.8 | 8.0 | 0.00 | 0.00 | 0.00 | 45 | 1020.0 |
| 20260503035944 | 20 | 34 | 0.0 | 3.2 | 0.00 | 0.00 | 0.00 | 45 | 1020.0 |
| 20260503035446 | 20 | 17 | 0.0 | 1.6 | 0.00 | 0.00 | 0.00 | 45 | 1020.0 |
| 20260503034945 | 20 | 359 | 0.0 | 3.2 | 0.00 | 0.00 | 0.00 | 44 | 1020.0 |
| 20260503034445 | 20 | 52 | 3.2 | 8.0 | 0.00 | 0.00 | 0.00 | 42 | 1020.0 |
| 20260503033944 | 20 | 60 | 3.2 | 6.4 | 0.00 | 0.00 | 0.00 | 42 | 1020.0 |
| 20260503033444 | 21 | 44 | 3.2 | 6.4 | 0.00 | 0.00 | 0.00 | 41 | 1020.0 |
| 20260503032944 | 21 | 54 | 3.2 | 9.7 | 0.00 | 0.00 | 0.00 | 41 | 1020.0 |
| 20260503032446 | 21 | 67 | 3.2 | 9.7 | 0.00 | 0.00 | 0.00 | 40 | 1020.0 |
| 20260503031945 | 21 | 38 | 4.8 | 11.3 | 0.00 | 0.00 | 0.00 | 40 | 1020.0 |
| 20260503031445 | 21 | 42 | 6.4 | 12.9 | 0.00 | 0.00 | 0.00 | 40 | 1020.0 |
| 20260503030945 | 21 | 51 | 8.0 | 12.9 | 0.00 | 0.00 | 0.00 | 39 | 1020.0 |
| 20260503030446 | 21 | 12 | 6.4 | 12.9 | 0.00 | 0.00 | 0.00 | 39 | 1020.0 |
| 20260503025945 | 21 | 48 | 6.4 | 9.7 | 0.00 | 0.00 | 0.00 | 39 | 1020.0 |
| 20260503025444 | 22 | 37 | 8.0 | 14.5 | 0.00 | 0.00 | 0.00 | 39 | 1020.0 |
| 20260503024944 | 22 | 4 | 8.0 | 12.9 | 0.00 | 0.00 | 0.00 | 39 | 1020.0 |
| 20260503024446 | 22 | 33 | 11.3 | 14.5 | 0.00 | 0.00 | 0.00 | 39 | 1020.0 |
| 20260503023944 | 22 | 44 | 8.0 | 12.9 | 0.00 | 0.00 | 0.00 | 39 | 1020.0 |
| 20260503023444 | 22 | 51 | 8.0 | 14.5 | 0.00 | 0.00 | 0.00 | 39 | 1020.0 |
| 20260503022946 | 22 | 8 | 11.3 | 16.1 | 0.00 | 0.00 | 0.00 | 39 | 1020.0 |
| 20260503022448 | 22 | 64 | 11.3 | 14.5 | 0.00 | 0.00 | 0.00 | 39 | 1020.0 |
| 20260503021946 | 22 | 44 | 11.3 | 17.7 | 0.00 | 0.00 | 0.00 | 38 | 1020.0 |
| 20260503021445 | 22 | 33 | 11.3 | 17.7 | 0.00 | 0.00 | 0.00 | 39 | 1020.0 |
| 20260503020945 | 22 | 28 | 9.7 | 14.5 | 0.00 | 0.00 | 0.00 | 39 | 1020.0 |
| 20260503020445 | 23 | 4 | 9.7 | 16.1 | 0.00 | 0.00 | 0.00 | 39 | 1020.0 |
| 20260503015945 | 23 | 18 | 11.3 | 16.1 | 0.00 | 0.00 | 0.00 | 38 | 1020.0 |
| 20260503015444 | 23 | 35 | 11.3 | 17.7 | 0.00 | 0.00 | 0.00 | 38 | 1020.0 |
| 20260503014944 | 23 | 331 | 9.7 | 17.7 | 0.00 | 0.00 | 0.00 | 38 | 1020.0 |
| 20260503014444 | 23 | 22 | 8.0 | 16.1 | 0.00 | 0.00 | 0.00 | 38 | 1020.0 |
| 20260503013945 | 23 | 13 | 8.0 | 22.5 | 0.00 | 0.00 | 0.00 | 38 | 1020.0 |
| 20260503013445 | 23 | 49 | 9.7 | 17.7 | 0.00 | 0.00 | 0.00 | 37 | 1020.0 |
| 20260503012945 | 23 | 324 | 12.9 | 17.7 | 0.00 | 0.00 | 0.00 | 37 | 1020.0 |
| 20260503012444 | 24 | 18 | 8.0 | 16.1 | 0.00 | 0.00 | 0.00 | 37 | 1020.0 |
| 20260503011945 | 23 | 12 | 11.3 | 17.7 | 0.00 | 0.00 | 0.00 | 37 | 1020.0 |
| 20260503011446 | 24 | 353 | 9.7 | 17.7 | 0.00 | 0.00 | 0.00 | 37 | 1020.0 |
| 20260503010944 | 24 | 54 | 9.7 | 16.1 | 0.00 | 0.00 | 0.00 | 37 | 1019.0 |
| 20260503010445 | 24 | 32 | 9.7 | 14.5 | 0.00 | 0.00 | 0.00 | 37 | 1019.0 |
| 20260503005944 | 25 | 39 | 9.7 | 14.5 | 0.00 | 0.00 | 0.00 | 38 | 1019.0 |
| 20260503005444 | 25 | 5 | 8.0 | 11.3 | 0.00 | 0.00 | 0.00 | 37 | 1019.0 |
| 20260503004946 | 24 | 26 | 9.7 | 16.1 | 0.00 | 0.00 | 0.00 | 38 | 1019.0 |
| 20260503004444 | 25 | 10 | 9.7 | 14.5 | 0.00 | 0.00 | 0.00 | 38 | 1019.0 |
| 20260503003944 | 25 | 356 | 8.0 | 14.5 | 0.00 | 0.00 | 0.00 | 38 | 1018.0 |
| 20260503003444 | 25 | 70 | 8.0 | 14.5 | 0.00 | 0.00 | 0.00 | 38 | 1018.0 |
| 20260503002945 | 25 | 39 | 6.4 | 12.9 | 0.00 | 0.00 | 0.00 | 38 | 1018.0 |